STARLINK-33828, 63493

Orbit data source: Space-Track

STARLINK-33828, 63493 is a payload satellite owned by SpaceX/Seattle (US) in LEO that was launched on Mon, 07 Apr 2025 UTC via an FALCON 9 launch vehicle from the Air Force Western Test Range (AFWTR). Payload-class satellites include a variety of spacecraft equipped with specific instruments for various scientific and technological missions. These include communications satellites like Starlink; space stations such as the ISS; scientific satellites like the Hubble; Earth observation satellites from companies like Planet Labs, Umbra, and HawkEye 360; GPS; miniature CubeSats for education and research; and military/defense satellites.

Loading next visibility...
Identifier
63493, 2025-071A
Orbit
LEO
Last TLE update
1 day ago
Origin
Manufacturer
SpaceX/Seattle
Mission
Operational Commercial Communications
Bus & Motor
STARLINK V2MO, Unknown motor
Mass
575 kg wet, ~530 kg dry
Launch date (UTC)
2025-04-07 (3 months ago)
Launch vehicle
FALCON 9
Launch site
Air Force Western Test Range (AFWTR)
Object type
Payload
Rocket body
Debris
Shape & HBR
Box + 1 Pan, 29 m
Radar Cross Section
41.120 m², Large (>1 m²)

Expand to show TLE details & history

TLE from 1 day ago
0 STARLINK-33828
1 63493U 25071A   25188.19794662  .00056345  00000-0  18956-2 0  9992
2 63493  53.1578 202.3750 0001366 116.3156 243.7985 15.30277144 15136
Epoch: 2025-07-07T04:45Z
TLE epoch observation values (Epoch: 2025-07-07T04:45:02.587Z)
Latitude
-0.00006°
Longitude
-154.29656°
Altitude
476.298 km
Speed
7.629 km/s
True Right ascension
13h 29m 29s
True Declination
0° 00' 00"
Sunlit
Object was in daylight at epoch
Visualization orbit readout
Latitude
48.18429°
Longitude
-103.11681°
Altitude
479.437 km
Speed
7.632 km/s
Apparent Right ascension
12h 01m 19s
Apparent Declination
16° 10' 44"
Sunlit
Object is in daylight
Visualization observer readout
Local Sidereal Time
19:47:12
Azimuth
299.6° NW
Elevation
-8.6°
Doppler factor
1
Orbital elements
Apogee altitude
476.178 km
Perigee altitude
474.305 km
Semi-major axis
6,853.379 km
Eccentricity
0.00014
Inclination
53.1578°
RAAN
202.375°
Arg. of periapsis
116.3156°
True anomaly
Unknown
Mean anomaly
243.7985°
Eccentric anomaly
Unknown
Mean motion
3.82548 °/min
Orbital period
94.11 mins
BSTAR
0.0018956
Loading maneuver chart data...
Loading SW <> Apogee altitude chart data...
Loading historical data...
Loading historical data...
Loading historical data...
Loading historical data...
Loading historical data...
Loading historical data...
Loading historical data...

STARLINK-33828 Visibility forecast

Observer location: undefined°, undefined°

Span
Click to sort rows by Start time (UTC) header in descending order
Start Az.
Max El. time (UTC)
Max El. Az.
Max El.
End time (UTC)
End Az.
5 mins2025-07-08 09:26:36.508Z340.872° N2025-07-08 09:28:36.508Z32.519° NE26.821°2025-07-08 09:31:36.508Z92.329° ESE
5 mins2025-07-08 11:04:36.508Z279.108° WNW2025-07-08 11:06:36.508Z220.907° SW29.71°2025-07-08 11:09:36.508Z161.73° S
4 mins2025-07-09 02:22:36.508Z168.167° S2025-07-09 02:24:36.508Z117.27° SE22.68°2025-07-09 02:26:36.508Z79.432° E
5 mins2025-07-09 03:59:36.508Z265.975° W2025-07-09 04:01:36.508Z314.593° NW31.418°2025-07-09 04:04:36.508Z32.196° NE
|